| time (UTC) | temp F | wind direction | speed knots | gust knots | rain 1hr in | rain 24hr in | rain mn in | humidity % | barometer mb |
| 20260508122725 | 60 | 234 | 7.8 | 19.1 | 0.00 | 0.02 | 0.02 | 54 | |
| 20260508121804 | 60 | 238 | 8.7 | 16.5 | 0.00 | 0.02 | 0.02 | 58 | |
| 20260508120904 | 60 | 250 | 10.4 | 20.0 | 0.00 | 0.02 | 0.02 | 58 | |
| 20260508120025 | 59 | 246 | 10.4 | 20.0 | 0.00 | 0.02 | 0.02 | 57 | |
| 20260508115404 | 60 | 239 | 10.4 | 18.2 | 0.00 | 0.02 | 0.02 | 58 | |
| 20260508114504 | 60 | 229 | 12.2 | 20.9 | 0.00 | 0.02 | 0.02 | 58 | |
| 20260508113604 | 60 | 225 | 10.4 | 22.6 | 0.00 | 0.02 | 0.02 | 55 | |
| 20260508112704 | 59 | 226 | 10.4 | 20.9 | 0.00 | 0.02 | 0.02 | 59 | |
| 20260508111804 | 58 | 228 | 9.6 | 17.4 | 0.00 | 0.02 | 0.02 | 67 | |
| 20260508110905 | 57 | 225 | 7.8 | 14.8 | 0.00 | 0.02 | 0.02 | 66 | |
| 20260508110004 | 56 | 231 | 7.8 | 14.8 | 0.00 | 0.02 | 0.02 | 68 | |
| 20260508105404 | 57 | 230 | 8.7 | 16.5 | 0.00 | 0.02 | 0.02 | 69 | |
| 20260508104504 | 56 | 225 | 8.7 | 16.5 | 0.00 | 0.02 | 0.02 | 67 | |
| 20260508103625 | 56 | 198 | 8.7 | 17.4 | 0.00 | 0.02 | 0.02 | 70 | |
| 20260508102725 | 56 | 208 | 9.6 | 18.2 | 0.00 | 0.02 | 0.02 | 69 | |
| 20260508101804 | 56 | 208 | 8.7 | 18.2 | 0.00 | 0.02 | 0.02 | 73 | |
| 20260508100905 | 56 | 208 | 9.6 | 16.5 | 0.00 | 0.02 | 0.02 | 73 | |
| 20260508100005 | 56 | 219 | 7.8 | 16.5 | 0.00 | 0.02 | 0.02 | 73 | |
| 20260508095425 | 55 | 222 | 7.8 | 13.9 | 0.00 | 0.02 | 0.02 | 76 | |
| 20260508094503 | 54 | 225 | 7.8 | 16.5 | 0.00 | 0.02 | 0.02 | 78 | |
| 20260508093604 | 54 | 226 | 6.1 | 16.5 | 0.00 | 0.02 | 0.02 | 79 | |
| 20260508092704 | 55 | 220 | 6.1 | 12.2 | 0.00 | 0.02 | 0.02 | 82 | |
| 20260508091804 | 54 | 215 | 6.1 | 13.0 | 0.00 | 0.02 | 0.02 | 82 | |
| 20260508090904 | 54 | 214 | 5.2 | 11.3 | 0.00 | 0.02 | 0.02 | 83 | |
| 20260508090004 | 54 | 212 | 7.0 | 16.5 | 0.00 | 0.02 | 0.02 | 82 | |
| 20260508085404 | 54 | 212 | 7.0 | 16.5 | 0.00 | 0.02 | 0.02 | 81 | |
| 20260508084504 | 54 | 209 | 7.0 | 13.9 | 0.00 | 0.02 | 0.02 | 84 | |
| 20260508083604 | 54 | 202 | 6.1 | 11.3 | 0.00 | 0.02 | 0.02 | 86 | |
| 20260508082704 | 53 | 208 | 7.0 | 13.0 | 0.00 | 0.02 | 0.02 | 87 | |
| 20260508081804 | 52 | 206 | 5.2 | 11.3 | 0.00 | 0.02 | 0.02 | 88 | |
| 20260508080904 | 52 | 207 | 5.2 | 9.6 | 0.00 | 0.02 | 0.02 | 89 | |
| 20260508080005 | 52 | 201 | 4.3 | 8.7 | 0.00 | 0.02 | 0.02 | 90 | |
| 20260508075424 | 51 | 203 | 4.3 | 8.7 | 0.00 | 0.02 | 0.02 | 90 | |
| 20260508074504 | 50 | 208 | 4.3 | 8.7 | 0.00 | 0.02 | 0.02 | 91 | |
| 20260508073604 | 50 | 217 | 6.1 | 10.4 | 0.00 | 0.02 | 0.02 | 92 | |
| 20260508072704 | 50 | 222 | 4.3 | 9.6 | 0.00 | 0.02 | 0.02 | 93 | |
| 20260508071825 | 49 | 234 | 3.5 | 8.7 | 0.00 | 0.02 | 0.02 | 93 | |
| 20260508070903 | 49 | 237 | 1.7 | 6.1 | 0.00 | 0.02 | 0.02 | 94 | |
| 20260508070005 | 49 | 274 | 1.7 | 4.3 | 0.00 | 0.02 | 0.02 | 94 | |
| 20260508065404 | 49 | 262 | 1.7 | 4.3 | 0.00 | 0.02 | 0.02 | 94 | |
| 20260508064504 | 49 | 249 | 2.6 | 6.1 | 0.00 | 0.02 | 0.02 | 93 | |
| 20260508063604 | 49 | 245 | 2.6 | 6.1 | 0.00 | 0.02 | 0.02 | 93 | |
| 20260508062704 | 49 | 245 | 1.7 | 3.5 | 0.00 | 0.02 | 0.02 | 93 | |
| 20260508061804 | 49 | 247 | 2.6 | 7.8 | 0.00 | 0.02 | 0.02 | 93 | |
| 20260508060925 | 49 | 226 | 3.5 | 7.8 | 0.00 | 0.02 | 0.02 | 94 | |
| 20260508060025 | 48 | 202 | 1.7 | 5.2 | 0.00 | 0.02 | 0.02 | 95 | |
| 20260508055403 | 48 | 227 | 0.9 | 3.5 | 0.00 | 0.02 | 0.02 | 94 | |
| 20260508054503 | 47 | 246 | 0.0 | 2.6 | 0.00 | 0.02 | 0.02 | 94 | |
| 20260508053604 | 47 | 253 | 0.0 | 2.6 | 0.01 | 0.02 | 0.02 | 94 | |
| 20260508052704 | 48 | 255 | 0.0 | 2.6 | 0.01 | 0.02 | 0.02 | 94 | |
| 20260508051804 | 48 | 107 | 0.0 | 1.7 | 0.01 | 0.02 | 0.02 | 94 | |
| 20260508050903 | 48 | 70 | 0.0 | 2.6 | 0.01 | 0.02 | 0.02 | 94 | |
| 20260508050004 | 48 | 17 | 0.0 | 1.7 | 0.01 | 0.02 | 0.02 | 93 | |
| 20260508045425 | 48 | 32 | 0.9 | 2.6 | 0.01 | 0.02 | 0.02 | 93 | |
| 20260508044504 | 48 | 50 | 0.9 | 2.6 | 0.01 | 0.02 | 0.02 | 93 | |
| 20260508043604 | 48 | 34 | 0.0 | 0.9 | 0.01 | 0.02 | 0.02 | 93 | |
| 20260508042704 | 48 | 292 | 0.0 | 1.7 | 0.02 | 0.02 | 0.02 | 93 | |
| 20260508041803 | 48 | 245 | 0.0 | 2.6 | 0.02 | 0.02 | 0.02 | 93 | |
| 20260508040903 | 49 | 333 | 1.7 | 3.5 | 0.02 | 0.02 | 0.02 | 92 | |
| 20260508040004 | 49 | 327 | 0.9 | 2.6 | 0.02 | 0.02 | 0.02 | 92 | |
| 20260508035403 | 49 | 328 | 0.0 | 1.7 | 0.02 | 0.02 | 0.02 | 92 | |
| 20260508034503 | 49 | 225 | 0.0 | 3.5 | 0.02 | 0.02 | 0.02 | 92 | |
| 20260508033603 | 49 | 206 | 0.9 | 3.5 | 0.01 | 0.01 | 0.01 | 92 | |
| 20260508032704 | 49 | 186 | 1.7 | 4.3 | 0.00 | 0.00 | 0.00 | 93 | |
| 20260508031804 | 48 | 208 | 1.7 | 4.3 | 0.00 | 0.00 | 0.00 | 93 | |
| 20260508030925 | 48 | 207 | 0.9 | 3.5 | 0.00 | 0.00 | 0.00 | 93 | |
| 20260508030025 | 48 | 244 | 0.0 | 2.6 | 0.00 | 0.00 | 0.00 | 93 | |
| 20260508025404 | 48 | 316 | 0.0 | 1.7 | 0.00 | 0.00 | 0.00 | 93 | |
| 20260508024524 | 48 | 238 | 0.9 | 2.6 | 0.00 | 0.00 | 0.00 | 93 | |
| 20260508023604 | 48 | 270 | 1.7 | 3.5 | 0.00 | 0.00 | 0.00 | 92 | |
| 20260508022724 | 48 | 281 | 1.7 | 3.5 | 0.00 | 0.00 | 0.00 | 92 | |
| 20260508021803 | 48 | 267 | 1.7 | 4.3 | 0.00 | 0.00 | 0.00 | 92 | |
| 20260508020903 | 48 | 251 | 1.7 | 4.3 | 0.00 | 0.00 | 0.00 | 92 | |
| 20260508020004 | 48 | 251 | 1.7 | 4.3 | 0.00 | 0.00 | 0.00 | 92 | |
| 20260508015404 | 48 | 239 | 2.6 | 6.1 | 0.00 | 0.00 | 0.00 | 92 | |
| 20260508014504 | 48 | 247 | 1.7 | 3.5 | 0.00 | 0.00 | 0.00 | 91 | |
| 20260508013604 | 48 | 232 | 0.9 | 3.5 | 0.00 | 0.00 | 0.00 | 92 | |
| 20260508012725 | 49 | 281 | 0.0 | 2.6 | 0.00 | 0.00 | 0.00 | 91 | |
| 20260508011803 | 49 | 253 | 0.9 | 3.5 | 0.00 | 0.00 | 0.00 | 91 | |
| 20260508010904 | 49 | 267 | 1.7 | 2.6 | 0.00 | 0.00 | 0.00 | 91 | |
| 20260508010004 | 49 | 260 | 1.7 | 3.5 | 0.00 | 0.00 | 0.00 | 91 | |
| 20260508005403 | 49 | 264 | 1.7 | 3.5 | 0.00 | 0.00 | 0.00 | 90 | |
| 20260508004503 | 49 | 254 | 0.9 | 2.6 | 0.00 | 0.00 | 0.00 | 90 | |
| 20260508003603 | 50 | 299 | 0.0 | 1.7 | 0.00 | 0.00 | 0.00 | 90 | |
| 20260508002704 | 50 | 314 | 0.9 | 2.6 | 0.00 | 0.00 | 0.00 | 89 | |
| 20260508001804 | 50 | 251 | 1.7 | 4.3 | 0.00 | 0.00 | 0.00 | 89 | |
| 20260508000903 | 50 | 236 | 2.6 | 7.0 | 0.00 | 0.00 | 0.00 | 89 | |
| 20260508000017 | 50 | 245 | 2.6 | 4.3 | 0.00 | 0.00 | 0.00 | 89 | |
| 20260507235403 | 50 | 263 | 1.7 | 4.3 | 0.00 | 0.00 | 0.00 | 89 | |
| 20260507234504 | 50 | 274 | 0.9 | 2.6 | 0.00 | 0.00 | 0.00 | 89 | |
| 20260507233604 | 50 | 316 | 0.9 | 3.5 | 0.00 | 0.00 | 0.00 | 88 | |
| 20260507232703 | 50 | 280 | 1.7 | 3.5 | 0.00 | 0.00 | 0.00 | 88 | |
| 20260507231804 | 50 | 283 | 1.7 | 4.3 | 0.00 | 0.00 | 0.00 | 88 | |
| 20260507230904 | 49 | 296 | 2.6 | 4.3 | 0.00 | 0.00 | 0.00 | 88 | |
| 20260507230025 | 49 | 282 | 2.6 | 5.2 | 0.00 | 0.00 | 0.00 | 87 | |
| 20260507225404 | 49 | 266 | 2.6 | 5.2 | 0.00 | 0.00 | 0.00 | 87 | |
| 20260507224504 | 50 | 259 | 2.6 | 3.5 | 0.00 | 0.00 | 0.00 | 86 | |
| 20260507223604 | 50 | 279 | 2.6 | 4.3 | 0.00 | 0.00 | 0.00 | 86 | |
| 20260507222703 | 50 | 271 | 3.5 | 4.3 | 0.00 | 0.00 | 0.00 | 85 | |
| 20260507221803 | 50 | 256 | 1.7 | 4.3 | 0.00 | 0.00 | 0.00 | 85 | |
| 20260507220925 | 50 | 246 | 0.9 | 3.5 | 0.00 | 0.00 | 0.00 | 84 | |
| 20260507220004 | 51 | 232 | 0.0 | 1.7 | 0.00 | 0.00 | 0.00 | 83 | |
| 20260507215404 | 52 | 114 | 0.0 | 1.7 | 0.00 | 0.00 | 0.00 | 82 | |
| 20260507214504 | 52 | 122 | 0.9 | 3.5 | 0.00 | 0.00 | 0.00 | 82 | |
| 20260507213603 | 52 | 281 | 0.0 | 1.7 | 0.00 | 0.00 | 0.00 | 82 | |
| 20260507212704 | 52 | 307 | 1.7 | 5.2 | 0.00 | 0.00 | 0.00 | 81 | |
| 20260507211804 | 53 | 310 | 3.5 | 6.1 | 0.00 | 0.00 | 0.00 | 80 | |
| 20260507210924 | 53 | 279 | 2.6 | 5.2 | 0.00 | 0.00 | 0.00 | 79 | |
| 20260507210005 | 54 | 273 | 1.7 | 3.5 | 0.00 | 0.00 | 0.00 | 78 | |
| 20260507205404 | 54 | 278 | 0.9 | 3.5 | 0.00 | 0.00 | 0.00 | 78 | |
| 20260507204503 | 53 | 275 | 1.7 | 5.2 | 0.00 | 0.00 | 0.00 | 79 | |
| 20260507203604 | 53 | 267 | 2.6 | 4.3 | 0.00 | 0.00 | 0.00 | 79 | |
| 20260507202703 | 53 | 258 | 3.5 | 7.0 | 0.00 | 0.00 | 0.00 | 79 | |
| 20260507201804 | 54 | 245 | 2.6 | 6.1 | 0.00 | 0.00 | 0.00 | 79 | |
| 20260507200924 | 55 | 245 | 1.7 | 4.3 | 0.00 | 0.00 | 0.00 | 77 | |
| 20260507200004 | 55 | 296 | 0.9 | 2.6 | 0.00 | 0.00 | 0.00 | 76 | |
| 20260507195404 | 56 | 268 | 1.7 | 5.2 | 0.00 | 0.00 | 0.00 | 75 | |
| 20260507194503 | 56 | 292 | 1.7 | 4.3 | 0.00 | 0.00 | 0.00 | 74 | |
| 20260507193625 | 57 | 322 | 1.7 | 2.6 | 0.00 | 0.00 | 0.00 | 71 | |
| 20260507192724 | 57 | 335 | 2.6 | 5.2 | 0.00 | 0.00 | 0.00 | 71 | |
| 20260507191803 | 58 | 11 | 0.9 | 4.3 | 0.00 | 0.00 | 0.00 | 69 | |
| 20260507190903 | 59 | 9 | 0.9 | 2.6 | 0.00 | 0.00 | 0.00 | 69 | |
| 20260507190024 | 59 | 318 | 0.9 | 2.6 | 0.00 | 0.00 | 0.00 | 69 | |
| 20260507185404 | 60 | 345 | 0.9 | 2.6 | 0.00 | 0.00 | 0.00 | 69 | |
| 20260507184504 | 60 | 334 | 0.9 | 2.6 | 0.00 | 0.00 | 0.00 | 68 | |
| 20260507183603 | 60 | 318 | 0.9 | 2.6 | 0.00 | 0.00 | 0.00 | 66 | |
| 20260507182703 | 60 | 336 | 2.6 | 3.5 | 0.00 | 0.00 | 0.00 | 64 | |
| 20260507181804 | 61 | 327 | 1.7 | 3.5 | 0.00 | 0.00 | 0.00 | 63 | |
| 20260507180903 | 62 | 356 | 2.6 | 4.3 | 0.00 | 0.00 | 0.00 | 61 | |
| 20260507180004 | 63 | 348 | 3.5 | 7.8 | 0.00 | 0.00 | 0.00 | 57 | |
| 20260507175403 | 64 | 324 | 3.5 | 7.8 | 0.00 | 0.00 | 0.00 | 54 | |
| 20260507174504 | 66 | 313 | 2.6 | 5.2 | 0.00 | 0.00 | 0.00 | 49 | |
| 20260507173604 | 66 | 353 | 1.7 | 5.2 | 0.00 | 0.00 | 0.00 | 49 | |
| 20260507172725 | 66 | 12 | 2.6 | 6.1 | 0.00 | 0.00 | 0.00 | 50 | |
| 20260507171804 | 66 | 16 | 3.5 | 5.2 | 0.00 | 0.00 | 0.00 | 50 | |
| 20260507170904 | 65 | 4 | 3.5 | 5.2 | 0.00 | 0.00 | 0.00 | 50 | |
| 20260507170005 | 65 | 344 | 2.6 | 5.2 | 0.00 | 0.00 | 0.00 | 52 | |
| 20260507165405 | 64 | 338 | 1.7 | 3.5 | 0.00 | 0.00 | 0.00 | 49 | |
| 20260507164504 | 64 | 326 | 2.6 | 4.3 | 0.00 | 0.00 | 0.00 | 57 | |
| 20260507163604 | 64 | 318 | 3.5 | 6.1 | 0.00 | 0.00 | 0.00 | 51 | |
| 20260507162704 | 65 | 300 | 3.5 | 7.0 | 0.00 | 0.00 | 0.00 | 50 | |
| 20260507161804 | 66 | 313 | 2.6 | 7.0 | 0.00 | 0.00 | 0.00 | 47 | |
| 20260507160925 | 66 | 360 | 0.9 | 3.5 | 0.00 | 0.00 | 0.00 | 49 | |
| 20260507160025 | 64 | 53 | 0.9 | 3.5 | 0.00 | 0.00 | 0.00 | 51 | |
| 20260507155404 | 63 | 28 | 0.0 | 2.6 | 0.00 | 0.00 | 0.00 | 53 | |
| 20260507154525 | 62 | 346 | 0.9 | 2.6 | 0.00 | 0.00 | 0.00 | 55 | |
| 20260507153604 | 62 | 341 | 2.6 | 4.3 | 0.00 | 0.00 | 0.00 | 56 | |
| 20260507152704 | 62 | 307 | 4.3 | 6.1 | 0.00 | 0.00 | 0.00 | 56 | |
| 20260507151804 | 62 | 249 | 4.3 | 9.6 | 0.00 | 0.00 | 0.00 | 56 | |
| 20260507150904 | 63 | 234 | 4.3 | 9.6 | 0.00 | 0.00 | 0.00 | 55 | |
| 20260507150005 | 63 | 212 | 4.3 | 10.4 | 0.00 | 0.00 | 0.00 | 52 | |
| 20260507145404 | 62 | 204 | 5.2 | 10.4 | 0.00 | 0.00 | 0.00 | 52 | |
| 20260507144505 | 62 | 210 | 7.0 | 12.2 | 0.00 | 0.00 | 0.00 | 56 | |
| 20260507143605 | 63 | 222 | 7.8 | 16.5 | 0.00 | 0.00 | 0.00 | 51 | |
| 20260507142704 | 64 | 249 | 5.2 | 13.0 | 0.00 | 0.00 | 0.00 | 53 | |
| 20260507141804 | 64 | 265 | 6.1 | 12.2 | 0.00 | 0.00 | 0.00 | 51 | |
| 20260507140925 | 64 | 273 | 6.1 | 13.0 | 0.00 | 0.00 | 0.00 | 51 | |
| 20260507140005 | 64 | 271 | 8.7 | 16.5 | 0.00 | 0.00 | 0.00 | 53 | |
| 20260507135404 | 64 | 273 | 9.6 | 17.4 | 0.00 | 0.00 | 0.00 | 51 | |
| 20260507134505 | 63 | 297 | 7.0 | 14.8 | 0.00 | 0.00 | 0.00 | 53 | |
| 20260507133604 | 62 | 293 | 7.0 | 15.6 | 0.00 | 0.00 | 0.00 | 54 | |
| 20260507132704 | 62 | 304 | 8.7 | 15.6 | 0.00 | 0.00 | 0.00 | 50 | |
| 20260507131804 | 62 | 305 | 10.4 | 19.1 | 0.00 | 0.00 | 0.00 | 54 | |
| 20260507130904 | 62 | 310 | 11.3 | 19.1 | 0.00 | 0.00 | 0.00 | 54 | |
| 20260507130004 | 61 | 306 | 8.7 | 15.6 | 0.00 | 0.00 | 0.00 | 55 | |
| 20260507125404 | 61 | 302 | 8.7 | 15.6 | 0.00 | 0.00 | 0.00 | 54 | |
| 20260507124504 | 63 | 235 | 6.1 | 16.5 | 0.00 | 0.00 | 0.00 | 51 | |
| 20260507123604 | 64 | 222 | 7.0 | 13.0 | 0.00 | 0.00 | 0.00 | 51 |